Regional Weather Roundup
Issued by NWS

Home | Current Version | Previous Version | Graphics & Text | Print | Product List | Glossary On
Versions: 1 2 3 4 5 6 7 8 9 10 11 12 13 14 15 16 17 18 19 20 21 22 23 24 25 26 27 28 29 30 31 32 33 34 35 36 37 38 39 40 41 42 43 44 45 46 47 48
000
ASUS43 KDMX 252307
RWRIA

WEATHER ROUNDUP FOR IOWA
NATIONAL WEATHER SERVICE DES MOINES IA
600 PM CDT FRI JUL 25 2014

NOTE: "FAIR" INDICATES FEW OR NO CLOUDS BELOW 12,000 FEET WITH NO
SIGNIFICANT WEATHER AND/OR OBSTRUCTIONS TO VISIBILITY.

* - THESE STATIONS ARE NOT NWS STATIONS...THUS NOT UNDER NWS
QUALITY CONTROL.  THEY ALSO DO NOT REPORT WEATHER SUCH
AS PRECIPITATION OR FOG.

IAZ001>003-012>014-020>022-031>034-043>046-260000-
   NORTHWEST IOWA

CITY           SKY/WX    TMP DP  RH WIND       PRES   REMARKS
CARROLL *      PTSUNNY   82  73  74 SE5       29.77F HX  88
CHEROKEE *     CLOUDY    79  72  78 CALM      29.78S HX  82
DENISON *      MOSUNNY   84  75  74 CALM      29.75F HX  92
LE MARS *      CLOUDY    82  72  69 CALM      29.78S HX  87
ORANGE CITY *  CLOUDY    81  70  69 CALM      29.79S HX  84
SHELDON *      PTSUNNY   81  72  74 CALM      29.78R HX  84
SIOUX CITY     PTSUNNY   89  72  56 NE6       29.75F HX  96
SPENCER        CLOUDY    79  70  74 SE3       29.79F HX  82
STORM LAKE *   CLOUDY    77  73  88 VRB5      29.80F
$$

IAZ055>058-069>071-079>083-090>094-260000-
   SOUTHWEST IOWA

CITY           SKY/WX    TMP DP  RH WIND       PRES   REMARKS
ATLANTIC *     MOSUNNY   84  75  74 VRB6      29.75S HX  92
AUDUBON *      SUNNY     86  79  79 SE6       29.79S HX  99
CLARINDA *     SUNNY     93  79  62 SE7       29.74S HX 110
COUNCIL BLFS * SUNNY     90  82  79 VRB5      29.73F HX 111
CRESTON *      SUNNY     81  72  74 SE14      29.78S HX  84
HARLAN  *      MOSUNNY   84  75  74 E8G15     29.79F HX  92
LAMONI         MOSUNNY   80  70  71 SE8       29.78F HX  83
RED OAK *      SUNNY     91  79  66 S8        29.73S HX 107
SHENANDOAH *   SUNNY     95  81  63 SW6       29.72S HX 115
$$

IAZ047>049-059>061-072>074-084-260000-
   CENTRAL IOWA

CITY           SKY/WX    TMP DP  RH WIND       PRES   REMARKS
AMES           MOSUNNY   79  69  71 S8        29.80S HX  81
ANKENY *       SUNNY     79  70  73 S6        29.80R HX  81
CHARITON *     SUNNY     81  72  74 S9G17     29.80S HX  84
DES MOINES     MOSUNNY   82  70  66 SE8       29.79S HX  86
GRINNELL*      CLOUDY    77  68  73 S3        29.84S
KNOXVILLE *    MOSUNNY   81  70  69 S9        29.79S HX  84
MARSHALLTOWN   CLOUDY    78  69  73 S8        29.81S HX  80
PELLA *        MOSUNNY   82  72  69 SE5       29.82R HX  87
PERRY *        PTSUNNY   81  70  69 SE8       29.79S HX  84
$$

IAZ004>006-015-016-023>025-035-036-260000-
   NORTH CENTRAL IOWA

CITY           SKY/WX    TMP DP  RH WIND       PRES   REMARKS
ALGONA *       CLOUDY    77  70  78 S3        29.80F
CLARION *      CLOUDY    77  70  78 S7        29.81S
ESTHERVILLE    CLOUDY    77  69  76 S6        29.79F
FORT DODGE *   CLOUDY    79  70  73 SW7       29.81R HX  81
MASON CITY     CLOUDY    76  68  76 S7        29.83F
FOREST CITY *  CLOUDY    77  68  73 S6        29.81F
IOWA FALLS *   CLOUDY    77  68  73 S6        29.82F
$$

IAZ007>011-017>019-026>030-037>042-050>054-066-260000-
   NORTHEAST IOWA

CITY           SKY/WX    TMP DP  RH WIND       PRES   REMARKS
CEDAR RAPIDS   CLOUDY    74  67  78 SE6       29.84S
CHARLES CITY * CLOUDY    77  70  78 S6        29.83F
CLINTON *      CLOUDY    68  63  83 E13       29.93R
DECORAH *      CLOUDY    75  66  73 S8        29.85S
DUBUQUE        CLOUDY    69  65  86 SE8       29.89S
MONTICELLO *   CLOUDY    73  66  78 SE9       29.86F
OELWEIN *      CLOUDY    75  68  78 S7        29.85S
WATERLOO       CLOUDY    77  67  71 S8        29.82R
$$

IAZ064-065-067-068-078-260000-
   EAST CENTRAL IOWA

CITY           SKY/WX    TMP DP  RH WIND       PRES   REMARKS
DAVENPORT      CLOUDY    73  64  73 S6        29.89S
IOWA CITY      CLOUDY    75  68  78 SE7       29.85F
MT. PLEASANT * CLOUDY    77  64  65 S7        29.86S
MUSCATINE *    CLOUDY    75  66  73 SE7       29.86S
QUAD CITIES    CLOUDY    73  64  73 SE5       29.88S
$$

IAZ062-063-075>077-085>089-095>099-260000-
   SOUTHEAST IOWA

CITY           SKY/WX    TMP DP  RH WIND       PRES   REMARKS
BURLINGTON     CLOUDY    75  65  70 S10       29.86S
FAIRFIELD *    CLOUDY    77  68  73 S9G16     29.84S
FORT MADISON * CLOUDY    77  66  69 S7        29.87S
KEOKUK *       MOSUNNY   77  66  69 S9        29.85S
OSKALOOSA *      N/A     79  72  78 S10       29.83R HX  82
CENTERVILLE *  SUNNY     77  72  83 SE10      29.83F
OTTUMWA        SUNNY     78  69  73 S9        29.80F HX  80
WASHINGTON *   CLOUDY    77  70  78 S7        29.85R
$$

ABBREVIATIONS USED IN REMARKS
   TC - TEMPERATURES IN CELSIUS
  WCI - WIND CHILL INDEX
   HX - HEAT INDEX
  VSB - VISIBILITY
$$




USA.gov is the U.S. government's official web portal to all federal, state and local government web resources and services.